User: anonymous   Login
Location: Doschendorf
(50.0069°N, 11.0602°E)
Time: 21:12:44
(UTC+00:00)
Language:

Cosmos 1371 Rocket - Orbit

View from above orbital plane
View from above orbital plane
View from above satellite
View from above satellite

Ground track
Ground track

The orbit data is extracted from the following two-line orbital elements,

1 13242U 82051B   20027.47719306  .00000005  00000-0  10872-4 0  9993
2 13242  74.0430  42.0396 0024793   5.4502 354.6915 14.35964754970587
Epoch (UTC): 27 January 2020 11:27:09
Eccentricity: 0.0024793
inclination: 74.0430°
perigee height: 754 km
apogee height: 789 km
right ascension of ascending node: 42.0396°
argument of perigee: 5.4502°
revolutions per day: 14.35964754
mean anomaly at epoch: 354.6915°
orbit number at epoch: 97058

The dashed part of the orbit path shows where the satellite is in the earth's shadow,  

DLR